Trentino, Italy 16 day weather forecast

Slopes altitude range 800 m - 2505m

Number of lifts: -1 Pistes: -1km

In some cases the lift and piste totals shown are for the ski domain (e.g. Three Valleys) rather than individual resort (e.g. Courchevel)

Overview

The 16 day weather forecast is fully updated 4 times every day.

    • Mon 22 APR 2019
    • Mon 22
    • 6C 16C
    • Tue 23 APR 2019
    • Tue 23
    • 5C 10C
    • Wed 24 APR 2019
    • Wed 24
    • 6C 11C
    • Thu 25 APR 2019
    • Thu 25
    • 6C 13C
    • Fri 26 APR 2019
    • Fri 26
    • 7C 12C
    • Sat 27 APR 2019
    • Sat 27
    • 3C 12C
    • Sun 28 APR 2019
    • Sun 28
    • 6C 17C
    • Mon 29 APR 2019
    • Mon 29
    • 7C 15C
    • Tue 30 APR 2019
    • Tue 30
    • -4C 0C
    • Wed 01 MAY 2019
    • Wed 01
    • -5C -1C
    • Thu 02 MAY 2019
    • Thu 02
    • -8C 1C
    • Fri 03 MAY 2019
    • Fri 03
    • -5C 4C
    • Sat 04 MAY 2019
    • Sat 04
    • -2C 9C
    • Sun 05 MAY 2019
    • Sun 05
    • 3C 11C
    • Mon 06 MAY 2019
    • Mon 06
    • 1C 4C
    • Tue 07 MAY 2019
    • Tue 07
    • -4C -2C

Date:

Time Type 0°C level Temp Chill Snow Cloud Speed Gust Dir Press
3:00 2671m 2°C 2_3 0cm 91% 3mph 4mph 1018mB
6:00 2662m 2°C 2_2 0cm 80% 2mph 3mph 1016mB
9:00 2775m 6°C 6_2 0cm 40% 2mph 4mph 1013mB
12:00 2765m 16°C 16_4 0cm 24% 4mph 5mph 1011mB
15:00 2720m 16°C 16_6 0cm 27% 6mph 6mph 1008mB
18:00 2563m 16°C 16_4 0cm 60% 4mph 4mph 1008mB
21:00 2391m 5°C 5_3 0cm 93% 3mph 3mph 1009mB
0:00 2145m 4°C 4_2 0cm 96% 2mph 2mph 1008mB
3:00 2253m 4°C 4_2 0cm 99% 2mph 3mph 1006mB
6:00 2188m 4°C 4_2 0cm 99% 2mph 2mph 1004mB
9:00 2226m 5°C 5_2 0cm 93% 2mph 2mph 1003mB
12:00 2320m 10°C 10_3 0cm 94% 3mph 3mph 1003mB
15:00 2294m 9°C 9_2 0cm 100% 2mph 2mph 1003mB
18:00 2472m 9°C 9_2 0cm 97% 2mph 3mph 1005mB
21:00 2381m 5°C 5_1 0cm 99% 1mph 2mph 1007mB
0:00 2413m 4°C 4_1 0cm 92% 1mph 2mph 1008mB
3:00 2406m 4°C 4_2 0cm 93% 2mph 2mph 1009mB
6:00 2376m 4°C 4_2 0cm 86% 2mph 2mph 1010mB
9:00 2451m 6°C 6_4 0cm 70% 4mph 8mph 1011mB
12:00 2503m 11°C 11_6 0cm 64% 6mph 11mph 1012mB
15:00 2604m 12°C 12_6 0cm 84% 6mph 13mph 1011mB
18:00 2752m 12°C 12_1 0cm 81% 1mph 1mph 1013mB
21:00 2626m 6°C 6_1 0cm 88% 1mph 1mph 1017mB
0:00 2500m 5°C 5_1 0cm 90% 1mph 1mph 1018mB
3:00 2355m 5°C 5_1 0cm 74% 1mph 1mph 1018mB
6:00 2334m 4°C 4_1 0cm 72% 1mph 2mph 1018mB
9:00 2417m 6°C 6_3 0cm 51% 3mph 7mph 1018mB
12:00 2576m 13°C 13_6 0cm 58% 6mph 10mph 1017mB
15:00 2677m 13°C 13_5 0cm 82% 5mph 9mph 1016mB
18:00 2685m 13°C 13_3 0cm 86% 3mph 3mph 1017mB
21:00 2616m 6°C 6_3 0cm 96% 3mph 3mph 1017mB
0:00 2546m 6°C 6_2 0cm 83% 2mph 3mph 1017mB
3:00 2509m 5°C 5_1 0cm 70% 1mph 1mph 1016mB
6:00 2374m 5°C 5_1 0cm 71% 1mph 1mph 1015mB
9:00 2356m 7°C 7_4 0cm 65% 4mph 7mph 1016mB
12:00 2354m 12°C 12_7 0cm 61% 7mph 11mph 1016mB
15:00 2358m 11°C 11_4 0cm 72% 4mph 7mph 1017mB
18:00 1828m 11°C 11_7 0cm 82% 7mph 13mph 1019mB
21:00 1660m 2°C 2_5 2cm 99% 5mph 11mph 1021mB
0:00 1718m 1°C 1_6 1cm 99% 6mph 11mph 1022mB
3:00 1589m 0°C 0_5 0cm 87% 5mph 8mph 1024mB
6:00 1834m -1°C -1_5 0cm 50% 5mph 9mph 1025mB
9:00 2018m 3°C 3_5 0cm 0% 5mph 7mph 1024mB
12:00 2284m 12°C 12_4 0cm 0% 4mph 6mph 1023mB
15:00 2440m 13°C 13_5 0cm 0% 5mph 7mph 1022mB
18:00 2443m 13°C 13_4 0cm 0% 4mph 6mph 1024mB
21:00 2369m 2°C 2_5 0cm 6% 5mph 5mph 1027mB
0:00 2349m 1°C 1_5 0cm 27% 5mph 5mph 1027mB
3:00 2407m 1°C 1_5 0cm 64% 5mph 5mph 1026mB
6:00 2672m 1°C 1_3 0cm 73% 3mph 4mph 1025mB
9:00 2773m 6°C 6_2 0cm 90% 2mph 1mph 1023mB
12:00 2739m 17°C 17_4 0cm 85% 4mph 3mph 1022mB
15:00 2829m 17°C 17_5 0cm 34% 5mph 5mph 1020mB
18:00 2881m 17°C 17_4 0cm 25% 4mph 5mph 1021mB
21:00 2901m 5°C 5_3 0cm 48% 3mph 4mph 1022mB
0:00 2901m 4°C 4_4 0cm 50% 4mph 5mph 1021mB
3:00 2790m 3°C 3_4 0cm 58% 4mph 5mph 1019mB
6:00 2677m 3°C 3_3 0cm 67% 3mph 4mph 1017mB
9:00 2713m 7°C 7_4 0cm 77% 4mph 6mph 1015mB
12:00 2730m 15°C 15_7 0cm 78% 7mph 9mph 1011mB
15:00 2902m 8°C 8_8 0cm 100% 8mph 9mph 1008mB
18:00 2782m 9°C 9_5 0cm 99% 5mph 6mph 1008mB
21:00 2677m 2°C 2_6 0cm 100% 6mph 7mph 1008mB
0:00 2546m 2°C 2_6 2cm 99% 6mph 8mph 1007mB
3:00 2390m 1°C 1_0 2cm 99% 0mph 2mph 1006mB
6:00 2139m 0°C 0_9 4cm 100% 9mph 10mph 1006mB
9:00 1687m -3°C -3_9 5cm 100% 9mph 11mph 1007mB
12:00 1681m 0°C 0_7 4cm 100% 7mph 8mph 1007mB
15:00 2006m -1°C -1_9 1cm 88% 9mph 11mph 1007mB
18:00 1751m -1°C -1_9 1cm 79% 9mph 11mph 1009mB
21:00 1233m -6°C -6_6 0cm 72% 6mph 7mph 1013mB
0:00 872m -9°C -9_5 0cm 76% 5mph 5mph 1014mB
3:00 580m -10°C -10_4 0cm 61% 4mph 5mph 1015mB
6:00 1327m -11°C -11_4 0cm 40% 4mph 5mph 1014mB
9:00 1797m -5°C -5_5 0cm 40% 5mph 4mph 1013mB
12:00 1985m -1°C -1_4 1cm 55% 4mph 4mph 1011mB
15:00 2041m 0°C 0_6 3cm 96% 6mph 6mph 1010mB
18:00 1848m 0°C 0_5 4cm 97% 5mph 7mph 1012mB
21:00 1474m -5°C -5_4 1cm 72% 4mph 4mph 1014mB
0:00 1070m -7°C -7_2 0cm 57% 2mph 3mph 1014mB
Afternoon 0.203125mm 1.0625 2050m 1°C 1_1 8cm 77% 1mph 2mph 1009mB
Morning 0.59375mm 0.75 1380m -4°C -4_5 6cm 75% 5mph 6mph 1014mB
Afternoon 0.015625mm 0.125 2425m 4°C 4_11 0cm 71% 11mph 13mph 1009mB
Morning 0.0260417mm 0.25 2014m 0°C 0_13 0cm 76% 13mph 17mph 1010mB
Afternoon 0.00520833mm 0 2786m 9°C 9_16 0cm 71% 16mph 18mph 1004mB
Morning 0.0416667mm 0 3275m 2°C 2_15 0cm 99% 15mph 22mph 1004mB
Afternoon 0.0260417mm 0.125 3051m 11°C 11_17 0cm 70% 17mph 20mph 1000mB
Morning 0.520833mm 5.125 2656m 4°C 4_14 0cm 84% 14mph 21mph 998mB
Afternoon 1.22917mm 2.625 2297m 4°C 4_8 21cm 100% 8mph 13mph 1001mB
Morning 0.505208mm 1.875 1736m -2°C -2_8 15cm 100% 8mph 12mph 1009mB
Afternoon 1.05729mm 0.125 1608m -2°C -2_11 8cm 100% 11mph 13mph 1013mB
Morning 0.817708mm 0.0625 1125m -6°C -6_7 7cm 100% 7mph 12mph 1021mB

16 day outlook at a glance

Forecast issued: 22/04/2019 08:59:04

Chat

Your comments and questions. In a resort? Let us know what it's like!


Characters left 250

For terms and conditions see Readers Comments on the Cookie and privacy policy page.